Regional Weather Roundup
Issued by NWS

Home | Current Version | Previous Version | Text Only | Print | Product List | Glossary On
Versions: 1 2 3 4 5 6 7 8 9 10 11 12 13 14 15 16 17 18 19 20 21 22 23 24 25 26 27 28 29 30 31 32 33 34 35 36 37 38 39 40 41 42 43 44 45 46 47 48 49 50
000
ASUS43 KMPX 281101
RWRMN
WEATHER ROUNDUP FOR MINNESOTA
NATIONAL WEATHER SERVICE TWIN CITIES/CHANHASSEN MN
600 AM CDT THU APR 28 2016


NOTE: "FAIR" INDICATES FEW OR NO CLOUDS BELOW 12,000 FEET WITH NO
SIGNIFICANT WEATHER AND/OR OBSTRUCTIONS TO VISIBILITY. N/A MEANS
CURRENT SKY AND/OR WEATHER CONDITIONS ARE NOT AVAILABLE.

MNZ060>063-068>070-281200-
   Twin Cities Metro

CITY           SKY/WX    TMP DP  RH WIND       PRES   REMARKS
TWIN CITIES    CLOUDY    40  33  76 NE12      29.91R
ST PAUL        LGT RAIN  39  34  82 N7        29.92R
CRYSTAL        CLOUDY    38  33  82 N7        29.91R
BLAINE         LGT RAIN  37  36  93 N8        29.92S
EDEN PRAIRIE   CLOUDY    41  33  73 NE10G21   29.88R
SOUTH ST PAUL  CLOUDY    40  35  80 NE6       29.91R
LAKE ELMO      LGT RAIN  37  34  87 NE7       29.92R
$$
MNZ001>005-007-008-013>017-022>024-027-028-281200-
   Northwest Minnesota

CITY           SKY/WX    TMP DP  RH WIND       PRES   REMARKS
BEMIDJI        CLOUDY    37  19  48 NE8       30.05S
HALLOCK        CLOUDY    41  14  33 E13       30.12R
ROSEAU         MOCLDY    36  27  69 E8        30.13R
WARROAD        MOCLDY    36  28  75 NE7       30.14S
THIEF RVR FALL CLOUDY    37  19  48 NE9       30.09R
CROOKSTON      CLOUDY    39  21  48 E9        30.07S
FOSSTON        CLOUDY    39  18  41 NE8       30.05S
MOORHEAD       CLOUDY    43  27  52 NE8       30.01R
PARK RAPIDS    CLOUDY    42  12  29 E8        30.00S
MAHNOMEN       CLOUDY    41  16  36 E13       30.01S
$$
MNZ006-009>011-018-025>026-281200-
   North Central Minnesota

CITY           SKY/WX    TMP DP  RH WIND       PRES   REMARKS
BAUDETTE       CLOUDY    34  15  46 NE5       30.12R WCI  30
FLAG ISLAND    CLOUDY    37  16  41 NE8       30.15R
INTL FALLS     CLOUDY    35  18  49 NE6       30.12R WCI  30
WASKISH        MOCLDY    34  21  60 NE6       30.10S WCI  29
BIG FORK       CLOUDY    32  19  59 N5        30.08S WCI  27
LONGVILLE      CLOUDY    39  10  30 E7        30.03R
GRAND RAPIDS   CLOUDY    37  10  32 NE5       30.05S
CRANE LAKE     CLOUDY    27  25  93 CALM      30.13R
ORR            CLOUDY    30  16  55 CALM      30.07R
COOK           CLOUDY    28  21  74 CALM      30.09S
WALKER         CLOUDY    40  14  35 E9G17     30.03S
$$
MNZ012-019>021-037-281200-
   Northeast Minnesota

CITY           SKY/WX    TMP DP  RH WIND       PRES   REMARKS
DULUTH         CLOUDY    37  20  50 E13G21    30.02S
ELY            CLOUDY    28  21  74 CALM      30.09S
HIBBING        CLOUDY    34  14  43 N6        30.05R WCI  29
EVELETH        CLOUDY    36  16  44 NE7       30.06S
DULUTH HARBOR  CLOUDY    37  32  81 NE22      30.05S
TWO HARBORS    CLOUDY    39  27  60 NE9G16    30.04S
SILVER BAY     CLOUDY    37  25  60 NE10      30.06F
GRAND MARAIS     N/A     41  21  44 NE13G23   30.12R
G MARAIS ARPRT CLOUDY    32  16  51 NE8       30.10R WCI  25
$$
MNZ029>031-032-039>041-046>048-054>057-064-281200-
   West Central Minnesota

CITY           SKY/WX    TMP DP  RH WIND       PRES   REMARKS
FERGUS FALLS   CLOUDY    43  18  36 E15G23    29.98R
WHEATON        CLOUDY    39  32  75 NE9       29.98S
MORRIS         CLOUDY    39  34  81 NE13      29.93S
ALEXANDRIA       N/A     36  28  73 NE9       29.96R
ELBOW LAKE     LGT RAIN  37  30  77 NE8       29.97R
WADENA         DRIZZLE   39  16  38 NE9       29.98S
GLENWOOD       CLOUDY    36  30  80 NE15      29.94R
APPLETON       CLOUDY    39  30  70 NE10      29.92S
BENSON         CLOUDY    39  28  65 MISG      29.92S
ORTONVILLE     CLOUDY    37  30  75 NE10      29.93S
MADISON        DRIZZLE   39  30  70 NE13      29.92R
WILLMAR        RAIN      39  32  75 NE17G24   29.92R
$$
MNZ033>034-036-042>043-049>051-058-059-281200-
   Central Minnesota

CITY           SKY/WX    TMP DP  RH WIND       PRES   REMARKS
ST CLOUD       CLOUDY    38  25  59 NE7       29.94R
SAUK CENTRE    CLOUDY    36  29  75 NE9       29.94S
PAYNESVILLE    RAIN      37  29  74 NE12G18   29.93R
AITKIN         CLOUDY    43  10  26 NE9       29.99S
PINE RIVER     CLOUDY    37  19  48 NE7       30.04S
BRAINERD       LGT RAIN  40  14  34 NE9       29.99S
STAPLES        CLOUDY    39  10  30 NE8       29.98S
LONG PRAIRIE   CLOUDY    36  27  69 N12G18    29.95R
LITTLE FALLS   CLOUDY    36  25  64 CALM      29.96R
LITCHFIELD     CLOUDY    37  36  93 NE12G17   29.92R
BUFFALO        RAIN      37  32  84 NE13G18   29.94R
MAPLE LAKE     RAIN      37  34  87 NE9       29.94R
HUTCHINSON     CLOUDY    39  37  92 NE12G18   29.90R
$$
MNZ037-044-045-052-053-281200-
   East Central Minnesota

CITY           SKY/WX    TMP DP  RH WIND       PRES   REMARKS
PRINCETON      LGT RAIN  37  27  65 NE8       29.95R
MORA           LGT RAIN  36  23  60 NE7       29.97S
CAMBRIDGE      CLOUDY    39  27  60 NE6       29.93R
RUSH CITY      LGT RAIN  36  26  66 NE12      29.94S
MOOSE LAKE     CLOUDY    37  18  44 NE6       29.98S
HINCKLEY       CLOUDY    41  14  33 NE10G17   29.96S
CLOQUET        CLOUDY    39  10  30 E12       30.01R
MCGREGOR       CLOUDY    39  18  41 NE8       30.01S
$$
MNZ071>073-080-081-089-090-097-098-281200-
   Southwest Minnesota

CITY           SKY/WX    TMP DP  RH WIND       PRES   REMARKS
MONTEVIDEO     LGT RAIN  37  34  87 E10       29.92S
GRANITE FALLS  RAIN      38  35  86 NE12G17   29.91R
CANBY          RAIN      39  37  92 NE9       29.90S
MARSHALL       LGT RAIN  38  36  92 E15       29.87R
REDWOOD FALLS  LGT RAIN  39  36  89 NE8       29.88R
OLIVIA         LGT RAIN  36  32  87 NE12      29.88S
PIPESTONE      CLOUDY    37  36  93 E10G23    29.81R
WINDOM         CLOUDY    37  36  93 NE16G24   29.81S
WORTHINGTON    CLOUDY    37  36  96 NE21      29.80R
JACKSON        CLOUDY    37  36  93 NE22G29   29.79R
TRACY          LGT RAIN  38  37  97 NE13G22   29.85S
SLAYTON        CLOUDY    36  36 100 NE17G24   29.82S
$$
MNZ065>067-074>077-082>085-091>093-281200-
   South Central Minnesota

CITY           SKY/WX    TMP DP  RH WIND       PRES   REMARKS
MANKATO        CLOUDY    39  34  81 NE13G22   29.85S
NEW ULM        RAIN      37  37 100 NE10G17   29.86R
ST JAMES       LGT RAIN  34  32  93 NE10      29.85R WCI  26
FAIRMONT       CLOUDY    39  28  65 NE17      29.80R
GLENCOE        RAIN      40  40  97 NE5       29.89R
OWATONNA       CLOUDY    37  34  87 NE12G20   29.84S
ALBERT LEA     CLOUDY    37  37 100 E13       29.81R
$$
MNZ078>079-086>088-094>096-281200-
   Southeast Minnesota

CITY           SKY/WX    TMP DP  RH WIND       PRES   REMARKS
ROCHESTER      CLOUDY    38  32  79 E12       29.84R
RED WING       LGT RAIN  41  32  70 E7        29.88R
STANTON        RAIN      40  35  80 NE5       29.86S
DODGE CENTER   CLOUDY    37  36  93 E12       29.83R
WINONA         CLOUDY    41  30  65 E8        29.87R
AUSTIN         CLOUDY    39  34  81 E9        29.81R
PRESTON        CLOUDY    38  31  76 NE8       29.83R
$$
ABBREVIATIONS USED IN REMARKS
   TC - TEMPERATURES IN CELSIUS
  WCI - WIND CHILL INDEX
   HX - HEAT INDEX
  VSB - VISIBILITY
$$




USA.gov is the U.S. government's official web portal to all federal, state and local government web resources and services.